Independence, KS

4:54 AM CDT on October 17, 2017 (GMT -0500)
Independence Municipal

Weather History for KIDP - November, 2012

Change the Weather History Date:

Thursday, November 29, 2012

  Actual Average (KCFV) Record (KCFV)
Temperature  
Mean Temperature 52 °F -  
Max Temperature 68 °F 52 °F 73 °F (1998)
Min Temperature 37 °F 32 °F 23 °F (2003)
Degree Days  
Heating Degree Days 12    
Growing Degree Days 2 (Base 50)    
Moisture  
Dew Point 34 °F    
Average Humidity 55    
Maximum Humidity 81    
Minimum Humidity 26    
Precipitation  
Precipitation 0.00 in - - ()
Sea Level Pressure  
Sea Level Pressure 30.08 in    
Wind  
Wind Speed 12 mph (South)    
Max Wind Speed 20 mph    
Max Gust Speed 26 mph    
Visibility 10 miles    
Events      
Averages and records for this station are not official NWS values.
T = Trace of Precipitation, MM = Missing Value Source: NWS Daily Summary

Daily Weather History Graph

Daily Weather History Graph

Search for Another Location

Airport or City:

Trip Planner

Search our weather history database for the weather conditions in past years. The results will help you decide how hot, cold, wet, or windy it might be!

Date:

Astronomy

Nov. 29, 2012 Rise Set
Actual Time 7:16 AM CST 5:06 PM CST
Civil Twilight 6:48 AM CST 5:34 PM CST
Nautical Twilight 6:16 AM CST 6:07 PM CST
Astronomical Twilight 5:44 AM CST 6:38 PM CST
Moon 6:10 PM CST (11/29) 8:04 AM CST (11/29)
Length of Visible Light 10h 46m
Length of Day
9h 49m
Full, 99% of the Moon is Illuminated
Nov 29
Full
Dec 6
Last Quarter
Dec 13
New
Dec 19
First Quarter
Dec 28
Full

Hourly Weather History & Observations

Time (CST) Temp. Windchill Dew Point Humidity Pressure Visibility Wind Dir Wind Speed Gust Speed Precip Events Conditions
12:15 AM 39.2 °F 34.2 °F 32.0 °F 75% 30.19 in 10.0 mi South 6.9 mph - N/A   Clear
12:35 AM 37.4 °F 30.8 °F 32.0 °F 81% 30.18 in 10.0 mi SSE 9.2 mph - N/A   Clear
12:55 AM 39.2 °F 33.6 °F 32.0 °F 75% 30.18 in 10.0 mi SSE 8.1 mph - N/A   Clear
1:15 AM 39.2 °F 33.6 °F 32.0 °F 75% 30.17 in 10.0 mi South 8.1 mph - N/A   Clear
1:35 AM 39.2 °F 34.2 °F 32.0 °F 75% 30.17 in 10.0 mi South 6.9 mph - N/A   Clear
1:55 AM 41.0 °F 37.1 °F 32.0 °F 70% 30.16 in 10.0 mi SSE 5.8 mph - N/A   Clear
2:15 AM 41.0 °F 35.8 °F 32.0 °F 70% 30.16 in 10.0 mi SSE 8.1 mph - N/A   Clear
2:35 AM 41.0 °F 35.8 °F 32.0 °F 70% 30.15 in 10.0 mi SSE 8.1 mph - N/A   Clear
2:55 AM 41.0 °F 35.2 °F 32.0 °F 70% 30.15 in 10.0 mi South 9.2 mph - N/A   Clear
3:15 AM 41.0 °F 35.8 °F 33.8 °F 76% 30.14 in 10.0 mi South 8.1 mph - N/A   Clear
3:35 AM 41.0 °F 34.7 °F 33.8 °F 76% 30.15 in 10.0 mi South 10.4 mph - N/A   Clear
3:55 AM 42.8 °F 36.2 °F 33.8 °F 70% 30.14 in 10.0 mi South 12.7 mph - N/A   Clear
4:15 AM 42.8 °F 35.4 °F 33.8 °F 70% 30.13 in 10.0 mi South 15.0 mph - N/A   Clear
4:35 AM 42.8 °F 35.8 °F 33.8 °F 70% 30.13 in 10.0 mi South 13.8 mph - N/A   Clear
4:55 AM 42.8 °F 35.8 °F 32.0 °F 66% 30.13 in 10.0 mi South 13.8 mph - N/A   Clear
5:15 AM 42.8 °F 35.1 °F 32.0 °F 66% 30.12 in 10.0 mi South 16.1 mph - N/A   Clear
5:35 AM 42.8 °F 34.8 °F 32.0 °F 66% 30.12 in 10.0 mi South 17.3 mph 21.9 mph N/A   Clear
5:55 AM 42.8 °F 34.8 °F 32.0 °F 66% 30.12 in 10.0 mi South 17.3 mph - N/A   Clear
6:15 AM 42.8 °F 34.8 °F 32.0 °F 66% 30.11 in 10.0 mi South 17.3 mph - N/A   Clear
6:35 AM 42.8 °F 34.3 °F 32.0 °F 66% 30.11 in 10.0 mi South 19.6 mph - N/A   Clear
6:55 AM 42.8 °F 34.8 °F 32.0 °F 66% 30.11 in 10.0 mi South 17.3 mph 23.0 mph N/A   Clear
7:15 AM 42.8 °F 34.3 °F 32.0 °F 66% 30.11 in 10.0 mi South 19.6 mph - N/A   Clear
7:35 AM 42.8 °F 34.8 °F 32.0 °F 66% 30.12 in 10.0 mi South 17.3 mph - N/A   Clear
7:55 AM 42.8 °F 35.4 °F 33.8 °F 70% 30.12 in 10.0 mi South 15.0 mph 21.9 mph N/A   Clear
8:15 AM 42.8 °F 35.1 °F 33.8 °F 70% 30.12 in 10.0 mi South 16.1 mph - N/A   Clear
8:35 AM 44.6 °F 37.4 °F 33.8 °F 66% 30.12 in 10.0 mi South 16.1 mph - N/A   Clear
8:55 AM 44.6 °F 37.4 °F 33.8 °F 66% 30.11 in 10.0 mi South 16.1 mph - N/A   Clear
9:15 AM 46.4 °F 39.5 °F 35.6 °F 66% 30.11 in 10.0 mi South 17.3 mph 24.2 mph N/A   Clear
9:35 AM 48.2 °F - 35.6 °F 62% 30.11 in 10.0 mi South 17.3 mph 25.3 mph N/A   Clear
10:15 AM 51.8 °F - 35.6 °F 54% 30.10 in 10.0 mi South 18.4 mph - N/A   Clear
10:35 AM 51.8 °F - 35.6 °F 54% 30.10 in 10.0 mi South 18.4 mph 23.0 mph N/A   Clear
10:55 AM 53.6 °F - 37.4 °F 54% 30.10 in 10.0 mi South 19.6 mph 26.5 mph N/A   Clear
11:15 AM 55.4 °F - 37.4 °F 51% 30.10 in 10.0 mi South 16.1 mph 20.7 mph N/A   Clear
11:35 AM 57.2 °F - 39.2 °F 51% 30.08 in 10.0 mi South 16.1 mph - N/A   Clear
11:55 AM 59.0 °F - 39.2 °F 48% 30.07 in 10.0 mi South 18.4 mph - N/A   Clear
12:15 PM 59.0 °F - 39.2 °F 48% 30.07 in 10.0 mi South 17.3 mph 24.2 mph N/A   Clear
12:35 PM 59.0 °F - 41.0 °F 51% 30.06 in 10.0 mi South 17.3 mph - N/A   Clear
12:55 PM 60.8 °F - 41.0 °F 48% 30.06 in 10.0 mi South 19.6 mph - N/A   Clear
1:15 PM 62.6 °F - 39.2 °F 42% 30.05 in 10.0 mi SSW 18.4 mph 24.2 mph N/A   Clear
1:35 PM 62.6 °F - 37.4 °F 39% 30.03 in 10.0 mi South 18.4 mph - N/A   Clear
1:55 PM 62.6 °F - 37.4 °F 39% 30.03 in 10.0 mi South 15.0 mph 24.2 mph N/A   Clear
2:15 PM 64.4 °F - 37.4 °F 37% 30.01 in 10.0 mi South 15.0 mph - N/A   Clear
2:35 PM 66.2 °F - 35.6 °F 32% 30.00 in 10.0 mi South 17.3 mph 24.2 mph N/A   Clear
2:55 PM 66.2 °F - 33.8 °F 30% 30.00 in 10.0 mi South 19.6 mph 25.3 mph N/A   Clear
3:15 PM 68.0 °F - 32.0 °F 26% 29.99 in 10.0 mi South 19.6 mph 25.3 mph N/A   Clear
3:35 PM 66.2 °F - 32.0 °F 28% 29.99 in 10.0 mi South 16.1 mph 23.0 mph N/A   Clear
3:55 PM 66.2 °F - 32.0 °F 28% 29.98 in 10.0 mi South 19.6 mph 25.3 mph N/A   Clear
4:15 PM 64.4 °F - 32.0 °F 30% 29.98 in 10.0 mi South 16.1 mph 24.2 mph N/A   Clear
4:35 PM 64.4 °F - 32.0 °F 30% 29.98 in 10.0 mi South 18.4 mph - N/A   Clear
4:55 PM 62.6 °F - 32.0 °F 32% 29.98 in 10.0 mi South 16.1 mph 24.2 mph N/A   Clear
5:15 PM 60.8 °F - 30.2 °F 31% 29.98 in 10.0 mi South 16.1 mph 21.9 mph N/A   Clear
5:35 PM 59.0 °F - 32.0 °F 36% 29.99 in 10.0 mi South 9.2 mph - N/A   Clear
5:55 PM 57.2 °F - 32.0 °F 38% 30.00 in 10.0 mi South 11.5 mph 17.3 mph N/A   Clear
6:15 PM 55.4 °F - 33.8 °F 44% 30.00 in 10.0 mi South 9.2 mph - N/A   Clear
6:35 PM 55.4 °F - 33.8 °F 44% 30.02 in 10.0 mi South 11.5 mph - N/A   Clear
6:55 PM 55.4 °F - 33.8 °F 44% 30.03 in 10.0 mi South 12.7 mph 17.3 mph N/A   Clear
7:15 PM 53.6 °F - 33.8 °F 47% 30.03 in 10.0 mi South 12.7 mph - N/A   Clear
7:35 PM 53.6 °F - 33.8 °F 47% 30.03 in 10.0 mi South 10.4 mph - N/A   Clear
7:55 PM 51.8 °F - 33.8 °F 50% 30.03 in 10.0 mi South 10.4 mph - N/A   Clear
8:15 PM 51.8 °F - 33.8 °F 50% 30.04 in 10.0 mi South 9.2 mph - N/A   Clear
8:35 PM 53.6 °F - 33.8 °F 47% 30.04 in 10.0 mi South 11.5 mph - N/A   Clear
8:55 PM 51.8 °F - 33.8 °F 50% 30.04 in 10.0 mi South 11.5 mph - N/A   Clear
9:15 PM 51.8 °F - 35.6 °F 54% 30.05 in 10.0 mi South 10.4 mph - N/A   Clear
9:35 PM 51.8 °F - 35.6 °F 54% 30.05 in 10.0 mi South 11.5 mph - N/A   Clear
9:55 PM 51.8 °F - 35.6 °F 54% 30.06 in 10.0 mi South 10.4 mph - N/A   Clear
10:15 PM 51.8 °F - 35.6 °F 54% 30.07 in 10.0 mi South 8.1 mph - N/A   Clear
10:35 PM 50.0 °F - 35.6 °F 58% 30.07 in 10.0 mi South 9.2 mph - N/A   Clear
10:55 PM 50.0 °F - 35.6 °F 58% 30.06 in 10.0 mi South 11.5 mph - N/A   Clear
11:15 PM 50.0 °F - 35.6 °F 58% 30.06 in 10.0 mi South 10.4 mph - N/A   Clear
11:35 PM 46.4 °F 43.5 °F 35.6 °F 66% 30.08 in 10.0 mi SSW 5.8 mph - N/A   Clear
11:55 PM 46.4 °F 44.3 °F 33.8 °F 62% 30.08 in 10.0 mi South 4.6 mph - N/A   Clear